Погода в Санкт-Галлене

Швейцария     47°25′39″N   9°22′40″E
темп.,
°C
ветер,
м/с
пор.,
м/с
влажн.,
%
обл.,
%
осадки,
мм/ч
давл.,
гПа
погр.,
м
12 мая, ср
ср1223:00+10юз2491100 3.6 1013303
02:00+9юз51089100 8.1 1014668
05:00+9зюз51085100 1.5 1014752
08:00+9зюз3681100 2.1 1015654
11:00+10св017094 0.4 1014817
14:00+12всв216696 0.7 1012812
17:00+13ссв3363100 0.2 1011792
20:00+11св3379100 0.5 1011195
13 мая, чт
чт1323:00+9всв1182100 0.0 101195
02:00+8ю1185100 0.0 101175
05:00+7юз118678 0.0 101078
08:00+9зюз1279100 0.0 1010231
11:00+11юз4676100 0.6 1009811
14:00+10з788494 1.6 1010786
17:00+9зюз587798 0.1 1010888
20:00+9юз357398 0.1 1010330
14 мая, пт
пт1423:00+9юз2370100 0.0 1010284
02:00+9ююз2271100 0.1 1010162
05:00+7ю2278100 0.1 1010139
08:00+9юз12715 0.1 1010235
11:00+11сз23667 0.3 1010771
14:00+14сз135323 0.8 10081288
17:00+15з3452100 0.3 10081241
20:00+11зюз5778100 1.8 1010414
15 мая, сб
сб1523:00+9юз3781100 0.8 1012375
02:00+8ююз2384100 1.1 1013118
05:00+8юз2581100 0.4 1013296
08:00+9зюз2482100 0.5 1014478
11:00+11з247343 0.6 1013893
14:00+13з246367 1.3 10111234
17:00+14з2356100 0.3 10101100
20:00+11з5883100 0.9 1012459
16 мая, вс
вс1623:00+9юз3588100 1.6 1013316
02:00+9юз2592100 3.9 1013427
05:00+8юз1294100 3.1 1013111
08:00+9ююз1390100 6.0 1013248
11:00+10ю1291100 2.8 1014186
14:00+11зюз1188100 3.4 1013100
17:00+13юз3781100 0.6 1011715
20:00+13юв1183100 0.9 100989